| time (UTC) | temp F | wind direction | speed MPH | gust MPH | rain 1hr in | rain 24hr in | rain mn in | humidity % | barometer mb |
| 20260502204130 | 45 | 306 | 2.0 | 7.0 | 0.00 | 0.01 | 0.01 | 48 | 1014.8 |
| 20260502204050 | 45 | 251 | 2.0 | 7.0 | 0.00 | 0.01 | 0.01 | 48 | 1014.9 |
| 20260502203340 | 45 | 251 | 2.0 | 7.0 | 0.00 | 0.01 | 0.01 | 48 | 1014.9 |
| 20260502202130 | 46 | 280 | 1.0 | 5.0 | 0.00 | 0.01 | 0.01 | 47 | 1014.9 |
| 20260502201616 | 45 | 252 | 2.0 | 7.0 | 0.00 | 0.01 | 0.01 | 47 | 1015.0 |
| 20260502201340 | 45 | 252 | 2.0 | 7.0 | 0.00 | 0.01 | 0.01 | 47 | 1015.0 |
| 20260502201059 | 45 | 291 | 3.0 | 11.0 | 0.00 | 0.01 | 0.01 | 48 | 1015.2 |
| 20260502200342 | 45 | 291 | 3.0 | 11.0 | 0.00 | 0.01 | 0.01 | 48 | 1015.2 |
| 20260502195130 | 46 | 270 | 4.0 | 9.0 | 0.00 | 0.01 | 0.01 | 47 | 1015.2 |
| 20260502195050 | 46 | 296 | 2.0 | 9.0 | 0.00 | 0.01 | 0.01 | 45 | 1015.3 |
| 20260502194340 | 46 | 296 | 2.0 | 9.0 | 0.00 | 0.01 | 0.01 | 45 | 1015.3 |
| 20260502193129 | 47 | 264 | 3.0 | 10.0 | 0.00 | 0.01 | 0.01 | 45 | 1015.4 |
| 20260502192608 | 46 | 327 | 2.0 | 10.0 | 0.00 | 0.01 | 0.01 | 47 | 1015.3 |
| 20260502192341 | 46 | 327 | 2.0 | 10.0 | 0.00 | 0.01 | 0.01 | 47 | 1015.3 |
| 20260502191606 | 46 | 0 | 2.0 | 7.0 | 0.00 | 0.01 | 0.01 | 47 | 1015.5 |
| 20260502191342 | 46 | 0 | 2.0 | 7.0 | 0.00 | 0.01 | 0.01 | 47 | 1015.5 |
| 20260502190130 | 46 | 40 | 3.0 | 6.0 | 0.00 | 0.01 | 0.01 | 47 | 1015.6 |
| 20260502185611 | 45 | 346 | 2.0 | 9.0 | 0.00 | 0.01 | 0.01 | 48 | 1015.7 |
| 20260502185129 | 45 | 346 | 2.0 | 9.0 | 0.00 | 0.01 | 0.01 | 48 | 1015.7 |
| 20260502184129 | 46 | 277 | 3.0 | 8.0 | 0.00 | 0.01 | 0.01 | 47 | 1015.8 |
| 20260502183611 | 47 | 241 | 2.0 | 8.0 | 0.00 | 0.01 | 0.01 | 44 | 1015.6 |
| 20260502183128 | 47 | 241 | 2.0 | 8.0 | 0.00 | 0.01 | 0.01 | 44 | 1015.6 |
| 20260502182130 | 46 | 155 | 4.0 | 10.0 | 0.00 | 0.01 | 0.01 | 47 | 1015.8 |
| 20260502181612 | 46 | 156 | 3.0 | 10.0 | 0.00 | 0.01 | 0.01 | 45 | 1015.7 |
| 20260502181339 | 46 | 156 | 3.0 | 10.0 | 0.00 | 0.01 | 0.01 | 45 | 1015.7 |
| 20260502180602 | 44 | 224 | 3.0 | 9.0 | 0.00 | 0.01 | 0.01 | 48 | 1016.0 |
| 20260502180339 | 44 | 224 | 3.0 | 9.0 | 0.00 | 0.01 | 0.01 | 48 | 1016.0 |
| 20260502170337 | 45 | 258 | 4.0 | 10.0 | 0.00 | 0.01 | 0.01 | 46 | 1016.1 |
| 20260502164334 | 45 | 347 | 4.0 | 11.0 | 0.00 | 0.01 | 0.01 | 45 | 1016.1 |
| 20260502163122 | 44 | 298 | 3.0 | 10.0 | 0.00 | 0.01 | 0.01 | 47 | 1016.4 |
| 20260502162510 | 43 | 27 | 3.0 | 9.0 | 0.00 | 0.01 | 0.01 | 48 | 1016.2 |
| 20260502162255 | 45 | 164 | 3.0 | 11.0 | 0.00 | 0.01 | 0.01 | 47 | 1016.1 |
| 20260502161330 | 43 | 27 | 3.0 | 9.0 | 0.00 | 0.01 | 0.01 | 48 | 1016.2 |
| 20260502160611 | 43 | 221 | 2.0 | 7.0 | 0.00 | 0.01 | 0.01 | 49 | 1016.4 |
| 20260502160119 | 43 | 221 | 2.0 | 7.0 | 0.00 | 0.01 | 0.01 | 49 | 1016.4 |
| 20260502152328 | 43 | 285 | 5.0 | 14.0 | 0.00 | 0.01 | 0.01 | 49 | 1016.4 |
| 20260502151114 | 42 | 304 | 3.0 | 11.0 | 0.00 | 0.02 | 0.01 | 53 | 1016.2 |
| 20260502150552 | 43 | 240 | 5.0 | 11.0 | 0.00 | 0.02 | 0.01 | 53 | 1016.2 |
| 20260502150324 | 43 | 240 | 5.0 | 11.0 | 0.00 | 0.02 | 0.01 | 53 | 1016.2 |
| 20260502140113 | 40 | 341 | 5.0 | 11.0 | 0.00 | 0.02 | 0.01 | 58 | 1016.5 |
| 20260502130104 | 40 | 53 | 4.0 | 9.0 | 0.00 | 0.01 | 0.00 | 72 | 1016.4 |
| 20260502123104 | 38 | 327 | 4.0 | 10.0 | 0.00 | 0.01 | 0.00 | 75 | 1016.4 |
| 20260502122104 | 38 | 349 | 4.0 | 8.0 | 0.00 | 0.01 | 0.00 | 76 | 1016.4 |
| 20260502121102 | 38 | 312 | 2.0 | 7.0 | 0.00 | 0.01 | 0.00 | 80 | 1016.5 |
| 20260502120546 | 37 | 327 | 3.0 | 8.0 | 0.00 | 0.01 | 0.00 | 81 | 1016.5 |
| 20260502120312 | 37 | 327 | 3.0 | 8.0 | 0.00 | 0.01 | 0.00 | 81 | 1016.5 |
| 20260502115553 | 37 | 298 | 3.0 | 6.0 | 0.00 | 0.01 | 0.00 | 84 | 1016.4 |
| 20260502115101 | 37 | 298 | 3.0 | 6.0 | 0.00 | 0.01 | 0.00 | 84 | 1016.4 |
| 20260502114533 | 36 | 328 | 2.0 | 6.0 | 0.00 | 0.01 | 0.00 | 85 | 1016.4 |
| 20260502114312 | 36 | 328 | 2.0 | 6.0 | 0.00 | 0.01 | 0.00 | 85 | 1016.4 |
| 20260502113101 | 35 | 292 | 2.0 | 4.0 | 0.00 | 0.01 | 0.00 | 88 | 1016.2 |
| 20260502112102 | 33 | 0 | 0.0 | 2.0 | 0.00 | 0.01 | 0.00 | 92 | 1016.2 |
| 20260502111101 | 33 | 0 | 0.0 | 1.0 | 0.00 | 0.01 | 0.00 | 94 | 1016.2 |
| 20260502110105 | 32 | 0 | 0.0 | 1.0 | 0.00 | 0.01 | 0.00 | 95 | 1016.2 |
| 20260502105101 | 31 | 0 | 0.0 | 0.0 | 0.00 | 0.01 | 0.00 | 96 | 1016.1 |
| 20260502104746 | 31 | 0 | 0.0 | 0.0 | 0.00 | 0.01 | 0.00 | 96 | 1016.1 |
| 20260502104556 | 31 | 0 | 0.0 | 0.0 | 0.00 | 0.01 | 0.00 | 96 | 1016.1 |
| 20260502103101 | 31 | 0 | 0.0 | 0.0 | 0.00 | 0.01 | 0.00 | 95 | 1016.0 |
| 20260502102102 | 32 | 0 | 0.0 | 0.0 | 0.00 | 0.01 | 0.00 | 94 | 1015.9 |
| 20260502101101 | 32 | 0 | 0.0 | 0.0 | 0.00 | 0.01 | 0.00 | 93 | 1015.9 |
| 20260502100546 | 33 | 0 | 0.0 | 0.0 | 0.00 | 0.01 | 0.00 | 92 | 1015.9 |
| 20260502091101 | 34 | 0 | 0.0 | 0.0 | 0.00 | 0.01 | 0.00 | 89 | 1015.7 |
| 20260502091021 | 34 | 0 | 0.0 | 0.0 | 0.00 | 0.01 | 0.00 | 89 | 1015.7 |
| 20260502090315 | 34 | 0 | 0.0 | 0.0 | 0.00 | 0.01 | 0.00 | 89 | 1015.7 |
| 20260502071053 | 35 | 0 | 0.0 | 0.0 | 0.00 | 0.01 | 0.00 | 86 | 1015.4 |
| 20260502070052 | 35 | 0 | 0.0 | 2.0 | 0.00 | 0.01 | 0.00 | 83 | 1015.5 |
| 20260502065536 | 35 | 80 | 0.0 | 2.0 | 0.00 | 0.01 | 0.00 | 86 | 1015.6 |
| 20260502065051 | 35 | 80 | 0.0 | 2.0 | 0.00 | 0.01 | 0.00 | 86 | 1015.6 |
| 20260502065008 | 35 | 0 | 0.0 | 0.0 | 0.00 | 0.01 | 0.00 | 85 | 1015.7 |
| 20260502064302 | 35 | 0 | 0.0 | 0.0 | 0.00 | 0.01 | 0.00 | 85 | 1015.7 |
| 20260502063049 | 35 | 0 | 0.0 | 0.0 | 0.00 | 0.01 | 0.00 | 84 | 1015.8 |
| 20260502062532 | 35 | 0 | 0.0 | 0.0 | 0.00 | 0.01 | 0.00 | 84 | 1015.8 |
| 20260502062050 | 35 | 0 | 0.0 | 0.0 | 0.00 | 0.01 | 0.00 | 84 | 1015.8 |
| 20260502061052 | 35 | 0 | 0.0 | 1.0 | 0.00 | 0.01 | 0.00 | 84 | 1015.9 |
| 20260502060052 | 35 | 0 | 0.0 | 3.0 | 0.00 | 0.01 | 0.00 | 83 | 1016.0 |
| 20260502055047 | 36 | 0 | 0.0 | 2.0 | 0.00 | 0.01 | 0.00 | 83 | 1016.0 |
| 20260502054048 | 36 | 0 | 0.0 | 2.0 | 0.00 | 0.01 | 0.00 | 82 | 1016.1 |
| 20260502053718 | 36 | 0 | 0.0 | 2.0 | 0.00 | 0.01 | 0.00 | 81 | 1016.2 |
| 20260502053604 | 36 | 0 | 0.0 | 2.0 | 0.00 | 0.01 | 0.00 | 81 | 1016.0 |
| 20260502053450 | 36 | 0 | 0.0 | 2.0 | 0.00 | 0.01 | 0.00 | 81 | 1016.2 |
| 20260502052259 | 36 | 0 | 0.0 | 2.0 | 0.00 | 0.01 | 0.00 | 81 | 1016.0 |
| 20260502051048 | 36 | 0 | 0.0 | 2.0 | 0.00 | 0.01 | 0.00 | 81 | 1016.1 |
| 20260502050741 | 35 | 0 | 0.0 | 3.0 | 0.00 | 0.01 | 0.00 | 82 | 1015.9 |
| 20260502050624 | 35 | 0 | 0.0 | 3.0 | 0.00 | 0.01 | 0.00 | 82 | 1015.9 |
| 20260502045047 | 35 | 74 | 1.0 | 3.0 | 0.00 | 0.01 | 0.00 | 82 | 1015.9 |
| 20260502044043 | 35 | 78 | 1.0 | 3.0 | 0.00 | 0.01 | 0.00 | 83 | 1015.8 |
| 20260502043522 | 35 | 67 | 1.0 | 4.0 | 0.00 | 0.01 | 0.00 | 82 | 1015.8 |
| 20260502043044 | 35 | 67 | 1.0 | 4.0 | 0.00 | 0.01 | 0.00 | 82 | 1015.8 |
| 20260502042044 | 36 | 104 | 2.0 | 4.0 | 0.00 | 0.01 | 0.00 | 83 | 1015.8 |
| 20260502041520 | 36 | 0 | 1.0 | 3.0 | 0.00 | 0.01 | 0.00 | 85 | 1015.8 |
| 20260502041255 | 36 | 0 | 1.0 | 3.0 | 0.00 | 0.01 | 0.00 | 85 | 1015.8 |
| 20260502040041 | 36 | 53 | 2.0 | 5.0 | 0.00 | 0.01 | 0.00 | 85 | 1015.7 |
| 20260502035042 | 36 | 47 | 2.0 | 3.0 | 0.00 | 0.01 | 0.01 | 84 | 1015.7 |
| 20260502034042 | 36 | 0 | 2.0 | 4.0 | 0.00 | 0.01 | 0.01 | 82 | 1015.6 |
| 20260502033522 | 37 | 78 | 1.0 | 3.0 | 0.00 | 0.01 | 0.01 | 81 | 1015.6 |
| 20260502033255 | 37 | 78 | 1.0 | 3.0 | 0.00 | 0.01 | 0.01 | 81 | 1015.6 |
| 20260502032529 | 37 | 0 | 1.0 | 3.0 | 0.00 | 0.01 | 0.01 | 80 | 1015.4 |
| 20260502032253 | 37 | 0 | 1.0 | 3.0 | 0.00 | 0.01 | 0.01 | 80 | 1015.4 |
| 20260502031038 | 37 | 62 | 1.0 | 5.0 | 0.00 | 0.01 | 0.01 | 79 | 1015.5 |
| 20260502030039 | 37 | 0 | 2.0 | 4.0 | 0.00 | 0.01 | 0.01 | 79 | 1015.4 |
| 20260502025521 | 37 | 73 | 2.0 | 4.0 | 0.00 | 0.01 | 0.01 | 79 | 1015.4 |
| 20260502025033 | 37 | 73 | 2.0 | 4.0 | 0.00 | 0.01 | 0.01 | 79 | 1015.4 |
| 20260502024033 | 37 | 90 | 1.0 | 4.0 | 0.00 | 0.01 | 0.01 | 78 | 1015.4 |
| 20260502023033 | 37 | 111 | 2.0 | 5.0 | 0.00 | 0.01 | 0.01 | 79 | 1015.4 |
| 20260502022030 | 37 | 95 | 2.0 | 5.0 | 0.00 | 0.01 | 0.01 | 78 | 1015.3 |
| 20260502021719 | 38 | 74 | 2.0 | 6.0 | 0.00 | 0.01 | 0.01 | 77 | 1015.3 |
| 20260502021609 | 38 | 74 | 2.0 | 6.0 | 0.00 | 0.01 | 0.01 | 77 | 1015.3 |
| 20260502020515 | 38 | 5 | 2.0 | 8.0 | 0.00 | 0.01 | 0.01 | 76 | 1015.3 |
| 20260502020242 | 38 | 5 | 2.0 | 8.0 | 0.00 | 0.01 | 0.01 | 76 | 1015.3 |
| 20260502015029 | 38 | 0 | 2.0 | 5.0 | 0.00 | 0.01 | 0.01 | 76 | 1015.3 |
| 20260502014511 | 38 | 52 | 2.0 | 6.0 | 0.00 | 0.01 | 0.01 | 74 | 1015.2 |
| 20260502014242 | 38 | 52 | 2.0 | 6.0 | 0.00 | 0.01 | 0.01 | 74 | 1015.2 |
| 20260502013030 | 39 | 49 | 3.0 | 9.0 | 0.00 | 0.01 | 0.01 | 73 | 1015.0 |
| 20260502012029 | 39 | 325 | 2.0 | 6.0 | 0.00 | 0.01 | 0.01 | 71 | 1014.8 |
| 20260502011520 | 40 | 72 | 2.0 | 6.0 | 0.00 | 0.01 | 0.01 | 69 | 1014.4 |
| 20260502011242 | 40 | 72 | 2.0 | 6.0 | 0.00 | 0.01 | 0.01 | 69 | 1014.4 |
| 20260502010029 | 41 | 0 | 2.0 | 5.0 | 0.00 | 0.01 | 0.01 | 67 | 1014.3 |
| 20260502005030 | 42 | 345 | 2.0 | 4.0 | 0.00 | 0.01 | 0.01 | 63 | 1014.1 |
| 20260502004029 | 42 | 328 | 1.0 | 4.0 | 0.00 | 0.01 | 0.01 | 63 | 1014.1 |
| 20260502003030 | 42 | 327 | 1.0 | 3.0 | 0.00 | 0.01 | 0.01 | 62 | 1014.1 |
| 20260502002029 | 42 | 0 | 1.0 | 5.0 | 0.00 | 0.01 | 0.01 | 62 | 1014.0 |
| 20260502001949 | 42 | 57 | 2.0 | 6.0 | 0.00 | 0.01 | 0.01 | 62 | 1014.0 |
| 20260502001239 | 42 | 57 | 2.0 | 6.0 | 0.00 | 0.01 | 0.01 | 62 | 1014.0 |
| 20260502000525 | 43 | 281 | 2.0 | 5.0 | 0.00 | 0.01 | 0.01 | 61 | 1013.9 |
| 20260502000030 | 43 | 281 | 2.0 | 5.0 | 0.00 | 0.01 | 0.01 | 61 | 1013.9 |
| 20260501235030 | 43 | 356 | 2.0 | 9.0 | 0.00 | 0.01 | 0.01 | 62 | 1013.9 |
| 20260501234741 | 43 | 279 | 3.0 | 8.0 | 0.00 | 0.01 | 0.01 | 60 | 1013.8 |
| 20260501234605 | 43 | 279 | 3.0 | 8.0 | 0.00 | 0.01 | 0.01 | 60 | 1013.8 |
| 20260501233029 | 43 | 302 | 3.0 | 7.0 | 0.00 | 0.01 | 0.01 | 62 | 1013.8 |
| 20260501232030 | 43 | 348 | 3.0 | 7.0 | 0.00 | 0.01 | 0.01 | 61 | 1013.8 |
| 20260501231029 | 43 | 350 | 3.0 | 9.0 | 0.00 | 0.01 | 0.01 | 61 | 1013.7 |
| 20260501230944 | 44 | 319 | 3.0 | 7.0 | 0.00 | 0.01 | 0.01 | 60 | 1013.7 |
| 20260501230241 | 44 | 319 | 3.0 | 7.0 | 0.00 | 0.01 | 0.01 | 60 | 1013.7 |
| 20260501225029 | 44 | 314 | 3.0 | 8.0 | 0.00 | 0.01 | 0.01 | 60 | 1013.7 |
| 20260501224512 | 44 | 309 | 3.0 | 7.0 | 0.00 | 0.01 | 0.01 | 60 | 1013.7 |
| 20260501224029 | 44 | 309 | 3.0 | 7.0 | 0.00 | 0.01 | 0.01 | 60 | 1013.7 |
| 20260501223029 | 44 | 303 | 4.0 | 8.0 | 0.00 | 0.01 | 0.01 | 59 | 1013.7 |
| 20260501222026 | 45 | 320 | 3.0 | 8.0 | 0.00 | 0.01 | 0.01 | 58 | 1013.6 |
| 20260501221518 | 45 | 63 | 2.0 | 4.0 | 0.00 | 0.01 | 0.01 | 57 | 1013.5 |
| 20260501221027 | 45 | 63 | 2.0 | 4.0 | 0.00 | 0.01 | 0.01 | 57 | 1013.5 |
| 20260501220533 | 45 | 289 | 4.0 | 9.0 | 0.00 | 0.01 | 0.01 | 56 | 1013.5 |
| 20260501220030 | 45 | 289 | 4.0 | 9.0 | 0.00 | 0.01 | 0.01 | 56 | 1013.5 |
| 20260501215716 | 45 | 43 | 3.0 | 7.0 | 0.00 | 0.01 | 0.01 | 56 | 1013.4 |
| 20260501215605 | 45 | 43 | 3.0 | 7.0 | 0.00 | 0.01 | 0.01 | 56 | 1013.4 |
| 20260501214025 | 44 | 0 | 3.0 | 9.0 | 0.00 | 0.01 | 0.01 | 57 | 1013.3 |
| 20260501213024 | 44 | 320 | 2.0 | 7.0 | 0.00 | 0.01 | 0.01 | 56 | 1013.3 |
| 20260501212024 | 44 | 309 | 4.0 | 9.0 | 0.00 | 0.01 | 0.01 | 57 | 1013.3 |
| 20260501211024 | 45 | 339 | 3.0 | 10.0 | 0.00 | 0.01 | 0.01 | 56 | 1013.0 |